Weather History for Missoula, MT

Change the Weather History Date:

Saturday, April 27, 2013

  Actual Average Record
Temperature  
Mean Temperature 53 °F 48 °F  
Max Temperature 69 °F 62 °F 85 °F (1987)
Min Temperature 36 °F 35 °F 24 °F (1955)
Degree Days  
Heating Degree Days 12 17  
Month to date heating degree days 602 532  
Since 1 July heating degree days 6418 6715  
Cooling Degree Days 0 0  
Month to date cooling degree days 0 0  
Year to date cooling degree days 0 0  
Growing Degree Days 2 (Base 50)    
Moisture  
Dew Point 32 °F    
Average Humidity 51    
Maximum Humidity 79    
Minimum Humidity 22    
Precipitation  
Precipitation 0.00 in 0.04 in 1.00 in (1907)
Month to date precipitation 0.58 1.10  
Year to date precipitation 2.64 3.65  
Snow  
Snow 0.00 in - - ()
Month to date snowfall 3.5  
Year to date snowfall 26.1  
Since 1 July snowfall 47.2  
Snow Depth 0.00 in    
Sea Level Pressure  
Sea Level Pressure 30.09 in    
Wind  
Wind Speed 11 mph (WNW)    
Max Wind Speed 32 mph    
Max Gust Speed 43 mph    
Visibility 10 miles    
Events      
T = Trace of Precipitation, MM = Missing Value Source: NWS Daily Summary

Daily Weather History Graph

Daily Weather History Graph

Search for Another Location

Airport:

Trip Planner

Search our weather history database for the weather conditions in past years. The results will help you decide how hot, cold, wet, or windy it might be!

Date:

Astronomy

Apr. 27, 2013 Rise Set
Actual Time 6:26 AM MDT 8:41 PM MDT
Civil Twilight 5:53 AM MDT 9:15 PM MDT
Nautical Twilight 5:12 AM MDT 9:56 PM MDT
Astronomical Twilight 4:25 AM MDT 10:43 PM MDT
Moon 11:22 PM MDT (4/27) 7:43 AM MDT (4/27)
Length of Visible Light 15h 21m
Length of Day
14h 14m
Waning Gibbous, 95% of the Moon is Illuminated
Apr 27
Waning Gibbous
May 2
Last Quarter
May 9
New
May 17
First Quarter
May 24
Full

Hourly Weather History & Observations

Time (MDT) Temp. Windchill Dew Point Humidity Pressure Visibility Wind Dir Wind Speed Gust Speed Precip Events Conditions
12:53 AM 48.0 °F - 35.1 °F 61% 30.14 in 10.0 mi NW 4.6 mph - N/A   Clear
1:53 AM 44.1 °F 40.1 °F 34.0 °F 68% 30.15 in 10.0 mi NNW 6.9 mph - N/A   Clear
2:53 AM 44.1 °F 40.8 °F 35.1 °F 71% 30.14 in 10.0 mi NW 5.8 mph - N/A   Clear
3:53 AM 41.0 °F - 35.1 °F 79% 30.14 in 10.0 mi Calm Calm - N/A   Clear
4:53 AM 43.0 °F 39.5 °F 35.1 °F 74% 30.13 in 10.0 mi ESE 5.8 mph - N/A   Clear
5:53 AM 39.0 °F - 33.1 °F 79% 30.14 in 10.0 mi Calm Calm - N/A   Clear
6:53 AM 41.0 °F - 33.1 °F 73% 30.14 in 7.0 mi Calm Calm - N/A   Clear
7:53 AM 41.0 °F - 36.0 °F 82% 30.16 in 10.0 mi Calm Calm - N/A   Clear
8:53 AM 50.0 °F - 37.0 °F 61% 30.15 in 10.0 mi Calm Calm - N/A   Clear
9:53 AM 54.0 °F - 37.9 °F 55% 30.13 in 10.0 mi Calm Calm - N/A   Clear
10:53 AM 59.0 °F - 37.0 °F 44% 30.12 in 10.0 mi Calm Calm - N/A   Clear
11:53 AM 64.9 °F - 27.0 °F 24% 30.09 in 10.0 mi West 21.9 mph 28.8 mph N/A   Clear
12:53 PM 66.9 °F - 26.1 °F 21% 30.08 in 10.0 mi WNW 19.6 mph 27.6 mph N/A   Clear
1:53 PM 66.0 °F - 26.1 °F 22% 30.06 in 10.0 mi West 19.6 mph - N/A   Mostly Cloudy
2:28 PM 66.2 °F - 26.6 °F 23% 30.05 in 10.0 mi SW 21.9 mph 36.8 mph N/A   Mostly Cloudy
2:53 PM 66.9 °F - 26.1 °F 21% 30.05 in 10.0 mi West 19.6 mph 29.9 mph N/A   Scattered Clouds
3:53 PM 66.9 °F - 27.0 °F 22% 30.03 in 10.0 mi West 28.8 mph 39.1 mph N/A   Mostly Cloudy
4:53 PM 66.9 °F - 27.0 °F 22% 30.00 in 10.0 mi WSW 13.8 mph 31.1 mph N/A   Scattered Clouds
5:53 PM 66.0 °F - 28.9 °F 25% 30.01 in 10.0 mi West 28.8 mph 38.0 mph N/A   Mostly Cloudy
6:53 PM 63.0 °F - 30.0 °F 29% 30.03 in 10.0 mi West 16.1 mph 26.5 mph N/A   Overcast
7:53 PM 60.1 °F - 30.9 °F 33% 30.04 in 10.0 mi West 23.0 mph 38.0 mph N/A   Partly Cloudy
8:53 PM 55.9 °F - 35.1 °F 45% 30.06 in 10.0 mi WNW 21.9 mph 28.8 mph N/A   Overcast
9:53 PM 53.1 °F - 37.0 °F 55% 30.08 in 10.0 mi NW 15.0 mph 26.5 mph N/A   Overcast
10:53 PM 52.0 °F - 37.0 °F 57% 30.06 in 10.0 mi Calm Calm - N/A   Overcast
11:53 PM 52.0 °F - 37.0 °F 57% 30.04 in 10.0 mi North 8.1 mph - N/A   Mostly Cloudy